Mount Carmel, IL

10:47 PM CDT on September 24, 2017 (GMT -0500)
Mount Carmel Municipal

Weather History for KAJG - February, 2012

Change the Weather History Date:

Thursday, February 23, 2012

  Actual Average (KLWV) Record (KLWV)
Temperature  
Mean Temperature 50 °F -  
Max Temperature 64 °F 44 °F 70 °F (2017)
Min Temperature 35 °F 28 °F 2 °F (2015)
Degree Days  
Heating Degree Days 16    
Moisture  
Dew Point 42 °F    
Average Humidity 72    
Maximum Humidity 94    
Minimum Humidity 39    
Precipitation  
Precipitation 0.00 in - - ()
Sea Level Pressure  
Sea Level Pressure 29.42 in    
Wind  
Wind Speed 4 mph (ESE)    
Max Wind Speed 18 mph    
Max Gust Speed 24 mph    
Visibility 10 miles    
Events      
Averages and records for this station are not official NWS values.
T = Trace of Precipitation, MM = Missing Value Source: NWS Daily Summary

Daily Weather History Graph

Daily Weather History Graph

Search for Another Location

Airport or City:

Trip Planner

Search our weather history database for the weather conditions in past years. The results will help you decide how hot, cold, wet, or windy it might be!

Date:

Astronomy

Feb. 23, 2012 Rise Set
Actual Time 6:32 AM CST 5:37 PM CST
Civil Twilight 6:05 AM CST 6:03 PM CST
Nautical Twilight 5:34 AM CST 6:34 PM CST
Astronomical Twilight 5:03 AM CST 7:05 PM CST
Moon 7:00 AM CST (2/23) 7:40 PM CST (2/23)
Length of Visible Light 11h 58m
Length of Day
11h 04m
Waxing Crescent, 3% of the Moon is Illuminated
Feb 23
Waxing Crescent
Feb 29
First Quarter
Mar 8
Full
Mar 14
Last Quarter
Mar 22
New

Hourly Weather History & Observations

Time (CST) Temp. Windchill Dew Point Humidity Pressure Visibility Wind Dir Wind Speed Gust Speed Precip Events Conditions
12:15 AM 42.8 °F - 33.8 °F 70% 29.50 in 10.0 mi Calm Calm - N/A   Clear
12:35 AM 37.4 °F - 33.8 °F 87% 29.51 in 10.0 mi Calm Calm - N/A   Clear
12:55 AM 39.2 °F - 35.6 °F 87% 29.52 in 10.0 mi Calm Calm - N/A   Clear
1:15 AM 41.0 °F - 37.4 °F 87% 29.51 in 10.0 mi Calm Calm - N/A   Clear
1:35 AM 35.6 °F - 32.0 °F 87% 29.53 in 10.0 mi Calm Calm - N/A   Clear
1:55 AM 35.6 °F - 33.8 °F 93% 29.53 in 10.0 mi Calm Calm - N/A   Clear
2:15 AM 37.4 °F 34.9 °F 35.6 °F 93% 29.53 in 10.0 mi SE 3.5 mph - N/A   Clear
2:35 AM 35.6 °F - 33.8 °F 93% 29.52 in 10.0 mi Calm Calm - N/A   Clear
2:55 AM 37.4 °F - 33.8 °F 87% 29.52 in 10.0 mi Calm Calm - N/A   Clear
3:15 AM 41.0 °F - 35.6 °F 81% 29.53 in 10.0 mi Calm Calm - N/A   Mostly Cloudy
3:35 AM 39.2 °F 35.9 °F 35.6 °F 87% 29.56 in 10.0 mi WNW 4.6 mph - N/A   Overcast
3:55 AM 41.0 °F - 37.4 °F 87% 29.56 in 10.0 mi Calm Calm - N/A   Overcast
4:15 AM 42.8 °F - 37.4 °F 81% 29.56 in 10.0 mi Calm Calm - N/A   Overcast
4:35 AM 42.8 °F - 37.4 °F 81% 29.55 in 10.0 mi Calm Calm - N/A   Overcast
4:55 AM 41.0 °F 38.0 °F 37.4 °F 87% 29.53 in 10.0 mi NE 4.6 mph - N/A   Light Drizzle
5:15 AM 41.0 °F 36.4 °F 37.4 °F 87% 29.50 in 10.0 mi ENE 6.9 mph - N/A   Scattered Clouds
5:35 AM 41.0 °F 37.1 °F 37.4 °F 87% 29.50 in 10.0 mi ENE 5.8 mph - N/A   Scattered Clouds
5:55 AM 41.0 °F 37.1 °F 37.4 °F 87% 29.51 in 10.0 mi SE 5.8 mph - N/A   Scattered Clouds
6:15 AM 41.0 °F 36.4 °F 37.4 °F 87% 29.50 in 10.0 mi SE 6.9 mph - N/A   Mostly Cloudy
6:35 AM 41.0 °F 39.0 °F 37.4 °F 87% 29.51 in 10.0 mi ESE 3.5 mph - N/A   Scattered Clouds
6:55 AM 41.0 °F 38.0 °F 39.2 °F 93% 29.52 in 7.0 mi ESE 4.6 mph - N/A   Mostly Cloudy
7:15 AM 42.8 °F 40.1 °F 41.0 °F 93% 29.53 in 7.0 mi East 4.6 mph - N/A   Overcast
7:35 AM 42.8 °F 41.1 °F 41.0 °F 93% 29.55 in 5.0 mi SSE 3.5 mph - N/A   Overcast
7:55 AM 42.8 °F - 41.0 °F 93% 29.56 in 5.0 mi Calm Calm - N/A   Scattered Clouds
8:15 AM 44.6 °F 41.4 °F 42.8 °F 93% 29.55 in 5.0 mi East 5.8 mph - N/A   Mostly Cloudy
8:35 AM 46.4 °F 43.5 °F 42.8 °F 87% 29.54 in 7.0 mi ESE 5.8 mph - N/A   Scattered Clouds
8:55 AM 46.4 °F 41.9 °F 42.8 °F 87% 29.52 in 10.0 mi ESE 9.2 mph - N/A   Clear
9:15 AM 50.0 °F - 44.6 °F 82% 29.49 in 10.0 mi SE 12.7 mph - N/A   Clear
9:35 AM 51.8 °F - 42.8 °F 71% 29.48 in 10.0 mi SE 12.7 mph - N/A   Clear
9:55 AM 55.4 °F - 42.8 °F 63% 29.48 in 10.0 mi SE 17.3 mph - N/A   Clear
10:15 AM 57.2 °F - 39.2 °F 51% 29.48 in 10.0 mi SE 17.3 mph 21.9 mph N/A   Clear
10:55 AM 59.0 °F - 37.4 °F 45% 29.44 in 10.0 mi SE 18.4 mph - N/A   Clear
11:15 AM 60.8 °F - 39.2 °F 45% 29.43 in 10.0 mi SE 13.8 mph - N/A   Clear
11:35 AM 62.6 °F - 39.2 °F 42% 29.41 in 10.0 mi ESE 16.1 mph 20.7 mph N/A   Clear
11:55 AM 62.6 °F - 37.4 °F 39% 29.38 in 10.0 mi ESE 15.0 mph 24.2 mph N/A   Clear
12:15 PM 62.6 °F - 37.4 °F 39% 29.35 in 10.0 mi East 16.1 mph - N/A   Clear
12:35 PM 62.6 °F - 41.0 °F 45% 29.33 in 10.0 mi East 16.1 mph 21.9 mph N/A   Clear
12:55 PM 62.6 °F - 41.0 °F 45% 29.32 in 10.0 mi East 15.0 mph - N/A   Scattered Clouds
1:15 PM 62.6 °F - 42.8 °F 48% 29.32 in 10.0 mi East 15.0 mph - N/A   Overcast
1:35 PM 62.6 °F - 42.8 °F 48% 29.31 in 10.0 mi ESE 16.1 mph - N/A   Overcast
1:55 PM 62.6 °F - 42.8 °F 48% 29.30 in 10.0 mi East 11.5 mph - N/A   Overcast
2:15 PM 62.6 °F - 42.8 °F 48% 29.30 in 10.0 mi East 11.5 mph - N/A   Overcast
2:35 PM 64.4 °F - 44.6 °F 49% 29.27 in 10.0 mi East 12.7 mph - N/A   Overcast
2:55 PM 64.4 °F - 44.6 °F 49% 29.27 in 10.0 mi East 15.0 mph - N/A   Overcast
3:15 PM 64.4 °F - 44.6 °F 49% 29.27 in 10.0 mi ESE 11.5 mph - N/A   Overcast
3:35 PM 64.4 °F - 46.4 °F 52% 29.27 in 10.0 mi East 9.2 mph - N/A   Overcast
3:55 PM 64.4 °F - 46.4 °F 52% 29.27 in 10.0 mi ESE 6.9 mph - N/A   Overcast
4:15 PM 62.6 °F - 46.4 °F 55% 29.27 in 10.0 mi ESE 6.9 mph - N/A   Overcast
4:35 PM 62.6 °F - 48.2 °F 59% 29.26 in 10.0 mi SE 5.8 mph - N/A   Mostly Cloudy
4:55 PM 62.6 °F - 50.0 °F 63% 29.26 in 10.0 mi SE 5.8 mph - N/A   Overcast
5:15 PM 62.6 °F - 50.0 °F 63% 29.28 in 10.0 mi Calm Calm - N/A   Overcast
5:35 PM 60.8 °F - 50.0 °F 68% 29.30 in 10.0 mi Calm Calm - N/A   Overcast
5:55 PM 62.6 °F - 51.8 °F 68% 29.30 in 10.0 mi Calm Calm - N/A   Mostly Cloudy
6:15 PM 60.8 °F - 51.8 °F 72% 29.31 in 10.0 mi Calm Calm - N/A   Clear
6:35 PM 60.8 °F - 51.8 °F 72% 29.32 in 10.0 mi Calm Calm - N/A   Clear
6:55 PM 57.2 °F - 50.0 °F 77% 29.33 in 10.0 mi Calm Calm - N/A   Clear
7:15 PM 55.4 °F - 50.0 °F 82% 29.33 in 10.0 mi Calm Calm - N/A   Clear
7:35 PM 55.4 °F - 51.8 °F 88% 29.34 in 10.0 mi Calm Calm - N/A   Clear
7:55 PM 53.6 °F - 50.0 °F 88% 29.34 in 10.0 mi NW 3.5 mph - N/A   Clear
8:15 PM 53.6 °F - 50.0 °F 88% 29.35 in 10.0 mi NNW 4.6 mph - N/A   Clear
8:35 PM 53.6 °F - 51.8 °F 94% 29.35 in 10.0 mi NW 4.6 mph - N/A   Clear
8:55 PM 51.8 °F - 46.4 °F 82% 29.36 in 10.0 mi NNW 5.8 mph - N/A   Clear
9:15 PM 51.8 °F - 46.4 °F 82% 29.36 in 10.0 mi Calm Calm - N/A   Clear
9:35 PM 51.8 °F - 46.4 °F 82% 29.36 in 10.0 mi West 3.5 mph - N/A   Clear
9:55 PM 51.8 °F - 46.4 °F 82% 29.37 in 10.0 mi NW 5.8 mph - N/A   Mostly Cloudy
10:15 PM 51.8 °F - 44.6 °F 76% 29.38 in 10.0 mi WNW 4.6 mph - N/A   Mostly Cloudy
10:35 PM 48.2 °F - 42.8 °F 82% 29.39 in 10.0 mi WNW 6.9 mph - N/A   Clear
10:55 PM 50.0 °F - 42.8 °F 76% 29.39 in 10.0 mi WNW 8.1 mph - N/A   Clear
11:15 PM 46.4 °F 42.9 °F 42.8 °F 87% 29.40 in 10.0 mi WNW 6.9 mph - N/A   Clear
11:35 PM 44.6 °F 40.7 °F 41.0 °F 87% 29.40 in 10.0 mi West 6.9 mph - N/A   Clear
11:55 PM 44.6 °F 39.2 °F 41.0 °F 87% 29.42 in 10.0 mi West 10.4 mph - N/A   Clear